Regional Weather Roundup
Issued by NWS Huntsville, AL

Home | Current Version | Previous Version | Text Only | Print | Product List | Glossary On
Versions: 1 2 3 4 5 6 7 8 9 10 11 12 13 14 15 16 17 18 19 20 21 22 23 24 25 26 27 28 29 30 31 32 33 34 35 36 37 38 39 40 41 42 43 44 45 46 47 48 49 50
000
ASUS44 KHUN 281610
RWRHUN

WEATHER ROUNDUP FOR THE TENNESSEE VALLEY
NATIONAL WEATHER SERVICE HUNTSVILLE AL
1100 AM CDT WED SEP 28 2016

ALZ001>004-281700-
NORTHWEST ALABAMA

CITY           SKY/WX    TMP DP  RH WIND       PRES   REMARKS
COURTLAND HCN    N/A     75 N/A N/A SW3         N/A
RUSSELLVILLE     N/A     77 N/A N/A MISG        N/A
SHOALS AIRPORT SUNNY     78  43  28 W9        29.99F
SHOALS TVA RES   N/A     75 N/A N/A MISG        N/A
$$

ALZ005>007-016-281700-
NORTH CENTRAL ALABAMA

CITY           SKY/WX    TMP DP  RH WIND       PRES   REMARKS
CULLMAN AG STN   N/A     75 N/A N/A CALM        N/A
DECATUR AP     SUNNY     76  47  35 MISG      29.99F
HUNTSVILLE AP  SUNNY     77  43  29 SW6       29.98F
MERIDIANVILLE  SUNNY     73  37  27 W3        29.99S
REDSTONE ARSN  SUNNY     74  46  37 SW7       29.97F
VINEMONT AP    FAIR      76  44  31 NW3       30.01S
$$

ALZ008>010-281700-
NORTHEAST ALABAMA

CITY           SKY/WX    TMP DP  RH WIND       PRES   REMARKS
ALBERTVILLE    SUNNY     73  54  49 SW3       29.98F
FORT PAYNE     SUNNY     73  39  29 CALM      29.98S
SCOTTSBORO AP  SUNNY     73  45  35 NW3       29.98F
SCOTTSBORO HCN   N/A     73 N/A N/A MISG        N/A
VALLEY HEAD      N/A     72 N/A N/A MISG        N/A
$$

TNZ076-096-097-281700-
SOUTHEASTERN MIDDLE TENNESSEE

CITY           SKY/WX    TMP DP  RH WIND       PRES   REMARKS
TULLAHOMA      SUNNY     73  43  33 SW8       29.98F
WINCHESTER     SUNNY     75  46  35 VRB5      29.98S
$$

...SURROUNDING SITES...

CITY           SKY/WX    TMP DP  RH WIND       PRES   REMARKS
ATLANTA        SUNNY     79  53  40 NW6       29.98S
ANNISTON       SUNNY     80  42  25 W7        29.98S
BIRMINGHAM     SUNNY     80  41  24 NW9       30.01S
CHATTANOOGA    SUNNY     75  47  36 VRB5      29.97F
CORINTH        FAIR      79  46  31 SW7       29.95F
DALTON         SUNNY     73  45  35 NW5       29.97F
GADSDEN        SUNNY     78  48  34 SW7       29.98F
GOLDEN TRNGL   SUNNY     75  46  35 CALM      30.01S
HALEYVILLE     FAIR      76  45  33 CALM      30.01F
JACKSON TN     SUNNY    N/A N/A N/A SW9       29.92F
MEMPHIS        SUNNY     79  54  41 SW9       29.94F
NASHVILLE      MOSUNNY   75  45  34 SW9G20    29.93F
OXFORD MS      FAIR      77  48  36 W9        30.00S
ROME           SUNNY     76  44  32 MISG      29.96F
SAVANNAH       SUNNY     77  46  33 SW12      29.95F
TUPELO         SUNNY     79  44  28 S7        29.98F
TUSCALOOSA     SUNNY     80  42  25 NW6       29.99F
$$

...GULF COAST WEATHER...

CITY           SKY/WX    TMP DP  RH WIND       PRES   REMARKS
GULFPORT       SUNNY     85  61  44 N7        30.01R
PASCAGOULA     SUNNY     85  64  49 N5        30.01R
MOBILE         MOSUNNY   83  62  49 CALM      30.02R
GULF SHORES    SUNNY     83  73  71 CALM      29.99S
DESTIN         SUNNY     85  73  67 S6        29.98S HX  91
PANAMA CITY    MOSUNNY   84  75  73 SW6       29.99R HX  92
APPALACHICOLA  LGT RAIN  77  77 100 CALM      29.99R
$$




USA.gov is the U.S. government's official web portal to all federal, state and local government web resources and services.